Current Version              Previous Version:    01  02  03  04  05  06  07  08  09  10  11  12  13  14  15  16  17  18  19  20  21  22  23  24  25  26  27  28  29  30  
   31  32  33  34  35  36  37  38  39  40  41  42  43  44  45  46  47  48  49  50  51  52  53  54  55  56  57  58  59  60  

[Printable]
559
ASUS44 KFWD 161203
RWRTX
NORTH TEXAS HOURLY WEATHER ROUNDUP
NATIONAL WEATHER SERVICE FORT WORTH TX
700 AM CDT WED APR 16 2014

NOTE: "FAIR" INDICATES FEW OR NO CLOUDS BELOW 12,000 FEET WITH NO
SIGNIFICANT WEATHER AND/OR OBSTRUCTIONS TO VISIBILITY.

TXZ118-119-161300-
DALLAS/FORT WORTH METROPLEX

CITY           SKY/WX    TMP DP  RH WIND       PRES   REMARKS
DFW AIRPORT    MOCLDY    45  31  58 S9        30.10R
6HR MIN TEMP:  45; 6HR MAX TEMP:  49;

DALLAS LOVE    PTCLDY    46  30  53 SE13      30.11R
6HR MIN TEMP:  45; 6HR MAX TEMP:  50;

FTW MEACHAM    CLEAR     44  31  60 S7        30.08R
6HR MIN TEMP:  42; 6HR MAX TEMP:  49;

DAL-EXECUTIVE  CLEAR     44  31  60 S7        30.10R
6HR MIN TEMP:  43; 6HR MAX TEMP:  49;

FTW-ALLIANCE   PTCLDY    42  30  62 S8        30.07S WCI  37
6HR MIN TEMP:  40; 6HR MAX TEMP:  45;

FTW-NAS-JRB    CLEAR     49  28  44 S13       30.13R
6HR MIN TEMP:  45; 6HR MAX TEMP:  53;

FTW-SPINKS     CLEAR     43  30  61 S6        30.11R WCI  39
ARLINGTON      CLEAR     41  31  67 SE5       30.10R WCI  38
6HR MIN TEMP:  40; 6HR MAX TEMP:  48;

GRAND PRAIRIE  CLEAR     46  30  53 S7        30.12S
ADDISON        PTCLDY    46  28  49 SE13      30.11R
MESQUITE       CLEAR     37  36  93 MISG      30.12R
LANCASTER      CLEAR     37  32  81 CALM      30.13R
6HR MIN TEMP:  37; 6HR MAX TEMP:  44;

$$

TXZ091>094-102>105-117-120-121-131>134-161300-
NORTH CENTRAL TEXAS

CITY           SKY/WX    TMP DP  RH WIND       PRES   REMARKS
SHRMAN/DENISON CLEAR     43  30  60 SE9       30.10R WCI  38
6HR MIN TEMP:  43; 6HR MAX TEMP:  48;

GAINESVILLE    CLEAR     42  32  67 S12       30.09S WCI  36
6HR MIN TEMP:  40; 6HR MAX TEMP:  44;

BOWIE          CLEAR     44  31  60 SE14      30.04R WCI  37
6HR MIN TEMP:  42; 6HR MAX TEMP:  46;

BRIDGEPORT     CLEAR     46  27  47 S6        30.08R
6HR MIN TEMP:  41; 6HR MAX TEMP:  49;

DECATUR        CLEAR     43  29  58 S8        30.07R WCI  38
6HR MIN TEMP:  43; 6HR MAX TEMP:  48;

DENTON         CLEAR     42  31  64 SE6       30.09R WCI  38
6HR MIN TEMP:  36; 6HR MAX TEMP:  46;

MCKINNEY       CLEAR     38  33  82 S7        30.11R WCI  33
6HR MIN TEMP:  37; 6HR MAX TEMP:  46;

GREENVILLE     CLEAR     41  34  75 SE7       30.14R WCI  36
ROCKWALL       CLEAR     41  32  70 SE9       30.11R HAZE    WCI  35
6HR MIN TEMP:  41; 6HR MAX TEMP:  46;

TERRELL        CLEAR     44  32  62 SE9       30.14R WCI  39
6HR MIN TEMP:  37; 6HR MAX TEMP:  45;

WAXAHACHIE     CLEAR     38  32  78 S3        30.12S
6HR MIN TEMP:  38; 6HR MAX TEMP:  45;

CLEBURNE       CLEAR     39  32  75 S9        30.11R WCI  33
GRANBURY       CLEAR     43  31  61 SE7       30.09R WCI  39
6HR MIN TEMP:  43; 6HR MAX TEMP:  48;

$$

TXZ083>090-098>101-113>116-127>130-139>142-154-155-161300-
WESTERN NORTH TEXAS

CITY           SKY/WX    TMP DP  RH WIND       PRES   REMARKS
WICHITA FALLS  PTCLDY    46  26  45 S16G24    29.98R WCI  39
6HR MIN TEMP:  46; 6HR MAX TEMP:  51;

WF-KICKAPOO    PTCLDY    45  27  49 SE16      30.00S WCI  38
6HR MIN TEMP:  45; 6HR MAX TEMP:  50;

VERNON         CLEAR     46  24  41 S14       29.94R
ABILENE        PTCLDY    47  20  34 S17G24    29.95F
6HR MIN TEMP:  47; 6HR MAX TEMP:  51;

ABILENE-DYESS  PTCLDY    47  19  33 S14       29.94F
6HR MIN TEMP:  47; 6HR MAX TEMP:  52;

BRECKENRIDGE   CLEAR     46  26  44 S12G17    30.01R
6HR MIN TEMP:  46; 6HR MAX TEMP:  53;

MINERAL WELLS  CLEAR     41  30  65 SE10      30.04R WCI  35
6HR MIN TEMP:  40; 6HR MAX TEMP:  45;

STEPHENVILLE   PTCLDY    41  30  63 S8        30.08R WCI  36
6HR MIN TEMP:  40; 6HR MAX TEMP:  45;

COMANCHE       PTCLDY    41  28  59 S10       30.05R WCI  35
6HR MIN TEMP:  41; 6HR MAX TEMP:  48;

BROWNWOOD      PTCLDY    41  28  60 SE8       30.05S WCI  36
BRADY            N/A     43  23  45 SE10      30.02S WCI  37
$$

TXZ143>147-156>162-174-175-161300-
CENTRAL TEXAS

CITY           SKY/WX    TMP DP  RH WIND       PRES   REMARKS
WACO           CLEAR     45  34  65 S10       30.12R WCI  40
6HR MIN TEMP:  43; 6HR MAX TEMP:  49;

WACO-MCGREGOR  CLEAR     37  28  70 S8        30.13R WCI  31
6HR MIN TEMP:  37; 6HR MAX TEMP:  41;

HILLSBORO      CLEAR     43  32  64 SE8       30.11R WCI  38
6HR MIN TEMP:  43; 6HR MAX TEMP:  48;

CORSICANA      CLEAR     43  33  68 S12       30.14R WCI  37
6HR MIN TEMP:  41; 6HR MAX TEMP:  48;

MEXIA          CLEAR     38  33  80 S3        30.13R
6HR MIN TEMP:  38; 6HR MAX TEMP:  44;

HEARNE         CLEAR     38  33  83 CALM      30.15R
6HR MIN TEMP:  37; 6HR MAX TEMP:  41;

CAMERON        CLEAR     44  33  64 SE6       30.13R
6HR MIN TEMP:  41; 6HR MAX TEMP:  47;

TEMPLE         CLEAR     37  28  70 S8          N/A  WCI  31
6HR MIN TEMP:  37; 6HR MAX TEMP:  46;

KILLEEN        PTCLDY    41  32  70 S8        30.09R WCI  36
KILLEEN-SKYLRK CLEAR     45  28  53 S9        30.10R WCI  40
6HR MIN TEMP:  43; 6HR MAX TEMP:  48;

HAMILTON       PTCLDY    42  31  64 S8        30.08R WCI  37
6HR MIN TEMP:  40; 6HR MAX TEMP:  45;

LAMPASAS       CLEAR     40  31  71 CALM      30.08R
6HR MIN TEMP:  39; 6HR MAX TEMP:  44;

$$

TXZ095>097-106>112-122>126-135>138-148>153-164>167-161300-
EAST TEXAS

CITY           SKY/WX    TMP DP  RH WIND       PRES   REMARKS
PARIS          CLEAR     39  32  75 SE9       30.16R WCI  33
6HR MIN TEMP:  39; 6HR MAX TEMP:  45;

SULPHUR SPRNGS CLEAR     44  31  62 S8        30.17R WCI  39
6HR MIN TEMP:  43; 6HR MAX TEMP:  47;

CLARKSVILLE    PTCLDY    40  34  80 CALM      30.17R
6HR MIN TEMP:  40; 6HR MAX TEMP:  45;

MOUNT PLEASANT CLEAR     37  35  90 CALM      30.20R
6HR MIN TEMP:  36; 6HR MAX TEMP:  40;

MINEOLA        CLEAR     36  36 100 CALM      30.17R
TYLER          CLEAR     43  33  68 SE12      30.15R WCI  37
6HR MIN TEMP:  38; 6HR MAX TEMP:  43;

LONGVIEW       CLEAR     42  35  76 SE9       30.18R WCI  37
6HR MIN TEMP:  39; 6HR MAX TEMP:  43;

ATHENS         CLEAR     36  32  87 CALM      30.15R
PALESTINE      CLEAR     45  32  60 SE10      30.18R WCI  39
JACKSONVILLE   CLEAR     41  33  73 S9        30.18R WCI  35
NACOGDOCHES    CLEAR     37  30  75 SE7       30.19S WCI  32
6HR MIN TEMP:  32; 6HR MAX TEMP:  41;

LUFKIN         CLEAR     38  33  82 E3        30.20R
6HR MIN TEMP:  38; 6HR MAX TEMP:  43;

$$

SUPPLEMENTAL OBSERVATIONS (CENTRAL)

CITY           SKY/WX    TMP DP  RH WIND       PRES   REMARKS
$$

SUPPLEMENTAL OBSERVATIONS (WEST)

CITY           SKY/WX    TMP DP  RH WIND       PRES   REMARKS
$$

SUPPLEMENTAL OBSERVATIONS (EAST)

CITY           SKY/WX    TMP DP  RH WIND       PRES   REMARKS
$$

SUPPLEMENTAL OBSERVATIONS ARE A COLLECTION OF AUTOMATED INSTRUMENTS
THAT ARE MAINTAINED BY A VARIETY OF FEDERAL AND STATE AGENCIES.
CERTAIN ELEMENTS...SUCH AS HUMIDITY VALUES AND SUSTAINED WIND
SPEEDS...MAY BE APPROXIMATED.